Location: D�derode
(51.8092°N, 10.1065°E)
Time: 22:45:24
(UTC+00:00)

Cosmos 1869 Rocket - Pass Details

Date: 17 April 2021
Orbit: 603 x 634 km, 82.5° (Epoch: 16 May)

Event Time Altitude Azimuth Distance (km) Brightness Sun altitude
Rises 23:20:49 0° 355° (N) 2,908 8.3 -27.4°
Reaches altitude 10° 23:23:17 10° 6° (N) 1,992 7.1 -27.4°
Enters shadow 23:27:07 31° 67° (ENE) 1,081 4.9 -27.3°
